Home   Weather   Weymouth   Past weeks
Flag for United Kingdom

Past Weather in Weymouth, England, United Kingdom — Yesterday and Last 2 Weeks

Now
54 °F

Cool.


Feels Like: 50 °F
Forecast: 61 / 55 °F
Wind: 15 mph from Southwest

Location: Isle Of Portland

Current Time: Jun 15, 2019 at 10:09:03 pm

Latest Report: Jun 15, 2019 at 9:00 pm


Visibility: 11 mi

Pressure: 29.94 "Hg

Humidity: 90%

Dew Point: 51 °F

Location of WeymouthLocation

Past Weather in Weymouth — Graph

°F

Weymouth Temperature Yesterday

Maximum temperature yesterday: 60 °F (at 2:00 pm)
Minimum temperature yesterday: 54 °F (at 10:00 pm)
Average temperature yesterday: 56 °F

High & Low Weather Summary for the Past Weeks

 TemperatureHumidityPressure
High62 °F (Jun 1, 11:00 am)99% (May 31, 11:00 pm)30.22 "Hg (May 31, 11:00 pm)
Low49 °F (Jun 11, 1:00 am)63% (Jun 6, 10:00 am)29.41 "Hg (Jun 7, 3:00 pm)
Average55 °F87%29.87 "Hg
* Reported May 31 9:00 pm — Jun 15 9:00 pm, Weymouth. Weather by CustomWeather, © 2019

Note: Actual official high and low records may vary slightly from our data, if they occured in-between our weather recording intervals... More about our weather records

Advertising

Weymouth Weather History for the Previous 24 Hours

Scroll right to see more
 ConditionsComfort  
Time TempWeatherWind HumidityBarometerVisibility
9:00 pm
Sat, Jun 15
54 °FCool.15 mph90%29.94 "Hg11 mi
8:00 pm55 °FCool.13 mph85%29.94 "Hg15 mi
7:00 pm57 °FCool.15 mph80%29.93 "Hg11 mi
6:00 pm58 °FCool.15 mph80%29.93 "Hg12 mi
5:00 pm59 °FCool.15 mph80%29.93 "Hg12 mi
4:00 pm58 °FCool.13 mph81%29.92 "Hg12 mi
3:00 pm59 °FCool.15 mph79%29.91 "Hg19 mi
2:00 pm59 °FCool.15 mph86%29.91 "Hg9 mi
1:00 pm57 °FSmoke.18 mph90%29.90 "Hg6 mi
12:00 pm56 °FCool.21 mph97%29.89 "Hg6 mi
11:00 am55 °FRain. Cloudy.20 mph99%29.88 "Hg2 mi
10:00 am55 °FLight rain. Cloudy.21 mph96%29.88 "Hg7 mi
9:00 am54 °FRain showers. Cloudy.21 mph96%29.88 "Hg6 mi
8:00 am56 °FCool.16 mph90%29.87 "Hg15 mi
7:00 am55 °FLight rain. Cloudy.15 mph89%29.86 "Hg10 mi
6:00 am56 °FCool.15 mph90%29.87 "Hg12 mi
5:00 am55 °FCool.15 mph90%29.86 "Hg17 mi
4:00 am54 °FCool.13 mph96%29.87 "Hg11 mi
3:00 am54 °FCool.14 mph91%29.86 "Hg14 mi
2:00 am55 °FCool.13 mph92%29.88 "Hg17 mi
1:00 am54 °FCool.13 mph90%29.88 "Hg19 mi
12:00 am54 °FCool.13 mph89%29.88 "Hg15 mi
11:00 pm
Fri, Jun 14
54 °FCool.10 mph91%29.88 "Hg11 mi
10:00 pm54 °FCool.10 mph92%29.87 "Hg11 mi
Weather by CustomWeather, © 2019

See weather overview